Wind_Speed
33 33 32 30 30 31 33 33 31 32 32 32 31 30 29 29 27 25 24 23 23 22 21 20 19 18 17 16 15 14 14 13 12 12 12 11 10 8 7 6 6 6 5 5 5 5 5 6 7 8 8 8 8 9 9 8 8 8 8 7 8 8 7
28 30 30 28 28 28 29 31 32 33 33 33 32 31 31 30 28 25 24 23 23 22 21 20 20 19 18 16 15 15 14 14 14 13 13 13 11 10 8 7 6 6 5 5 4 5 6 7 7 8 8 8 7 8 8 8 8 8 8 7 8 8 7
26 28 29 26 27 29 26 26 30 33 33 34 33 32 32 31 28 26 24 23 23 22 21 21 20 20 18 17 16 16 15 15 15 14 14 13 12 11 9 8 7 6 6 6 5 5 6 7 8 8 8 8 8 8 8 8 8 8 8 8 8 8 8
24 28 30 26 26 29 24 21 25 30 32 32 33 33 32 31 29 28 26 24 23 22 21 20 20 20 20 19 18 17 16 16 15 15 15 14 13 12 11 9 8 8 7 6 6 6 6 7 8 8 8 8 8 9 9 8 8 8 8 8 8 8 8
22 28 32 28 25 26 24 21 22 26 28 29 30 30 31 31 30 29 28 27 25 23 21 20 19 20 20 19 19 18 17 16 16 16 15 15 14 13 13 11 10 9 8 8 7 7 7 8 8 8 9 9 9 9 9 9 8 9 9 8 8 8 8
20 26 31 30 28 26 24 22 21 23 24 25 26 27 28 29 29 30 29 28 27 25 23 22 20 19 19 19 20 19 17 17 16 17 16 15 15 15 14 13 11 10 10 9 9 9 8 8 8 9 9 9 9 9 9 9 9 9 9 9 9 9 9
18 22 27 30 30 29 27 25 22 22 22 22 23 23 24 25 26 28 29 29 28 27 25 24 22 21 20 19 20 20 18 17 16 17 17 16 16 16 16 15 13 12 11 10 10 10 9 9 9 9 9 9 9 9 10 10 9 9 9 9 9 8 9
17 20 24 28 31 31 31 29 26 25 25 25 24 23 24 24 25 26 27 28 28 28 27 25 24 23 22 20 20 20 19 18 16 16 17 17 17 17 17 16 15 14 13 11 11 10 10 10 9 10 10 10 10 10 10 10 10 9 10 9 9 9 9
14 15 18 22 27 30 32 31 31 30 29 28 28 27 26 26 26 26 26 27 27 27 27 26 26 24 23 22 20 19 19 19 18 17 17 17 18 18 18 17 16 15 14 13 12 11 11 10 10 10 10 10 10 10 10 10 11 11 10 10 9 9 9
11 11 12 14 19 24 28 30 32 33 32 31 30 30 29 28 27 27 26 26 27 27 26 26 27 26 24 23 21 19 19 19 18 18 18 18 18 17 18 18 17 16 16 15 14 12 11 10 11 11 11 11 11 10 10 10 11 11 11 10 10 10 9
11 11 11 12 14 17 21 25 27 29 31 32 33 33 31 30 29 27 25 24 26 27 27 26 26 26 25 24 23 21 20 19 18 17 17 18 18 17 17 17 18 17 17 16 15 14 12 11 11 12 12 12 11 11 10 10 10 11 11 11 10 9 9
10 10 10 11 13 15 17 19 19 20 21 24 27 30 32 33 32 31 28 26 26 27 27 27 26 26 25 25 24 23 22 21 20 19 17 17 17 18 18 18 18 18 17 17 16 15 14 13 12 12 13 13 12 12 11 10 10 10 10 10 9 9 9
8 8 8 8 9 11 14 15 16 16 16 16 17 19 24 29 32 34 34 33 32 30 28 27 26 26 26 25 25 24 23 22 21 20 19 17 17 18 19 19 18 18 18 17 17 16 16 15 14 13 13 13 14 13 12 12 11 11 10 10 9 9 9
9 8 7 7 7 8 9 11 13 15 15 16 14 14 17 20 23 26 30 32 32 31 28 26 26 27 26 25 25 24 24 23 21 21 21 20 18 18 19 19 19 19 18 18 17 17 17 16 15 15 14 15 15 15 14 13 12 12 11 11 10 10 9
9 8 7 7 6 6 5 4 5 7 9 12 13 13 13 14 16 19 22 24 25 25 24 24 25 26 26 25 25 26 25 23 21 20 20 20 19 18 19 20 20 19 19 18 17 17 17 17 16 16 16 16 16 16 15 15 14 13 12 11 10 10 9
9 8 7 6 7 7 6 4 2 0 1 3 6 8 8 10 12 15 19 21 21 20 20 22 23 24 25 25 27 28 27 25 23 21 20 19 18 18 19 20 20 20 20 20 19 18 18 17 17 16 16 16 16 16 16 16 15 14 13 12 11 10 10
9 9 8 7 8 8 8 8 7 4 4 3 3 5 6 7 9 12 17 21 21 19 20 21 22 23 24 25 26 28 28 28 26 25 23 21 19 18 19 20 20 20 21 21 20 19 19 19 18 17 16 16 16 16 16 16 16 14 13 13 13 12 11
9 10 9 8 8 8 9 11 13 12 12 9 6 5 6 8 10 12 14 17 19 19 19 19 19 21 23 23 25 26 27 28 28 27 26 25 23 20 19 20 21 21 22 22 21 20 19 19 19 19 18 18 17 17 17 17 16 14 13 14 15 15 14
9 10 9 8 9 10 10 11 12 13 14 13 12 10 8 7 8 9 9 11 13 15 16 17 18 20 22 22 23 24 26 27 27 27 26 26 26 23 20 20 21 22 22 21 21 20 19 19 19 19 19 19 18 18 17 16 16 15 15 15 16 17 17
9 10 11 10 12 12 11 12 12 12 13 14 13 12 10 8 8 8 6 5 6 8 12 15 18 21 22 23 23 23 25 27 27 27 26 27 27 25 23 22 22 22 21 20 20 20 19 18 18 18 18 18 18 16 16 16 16 15 15 16 16 17 18
11 12 13 13 15 15 14 15 16 16 16 16 15 14 12 10 10 9 8 7 6 6 8 11 14 16 17 20 22 23 24 25 25 26 27 28 28 27 25 23 22 20 20 19 18 18 18 18 18 18 18 17 16 15 16 17 17 16 16 16 16 16 17
14 15 15 16 17 18 18 18 18 19 19 19 18 18 17 15 13 12 11 10 8 7 6 7 7 7 7 10 13 15 18 20 21 22 23 26 27 27 26 25 23 21 19 17 17 17 18 18 18 19 20 19 18 17 17 18 18 18 17 16 16 16 16
16 17 18 19 19 20 21 20 20 20 21 21 21 21 20 17 15 15 15 14 10 8 6 6 7 7 8 8 9 9 8 10 14 17 19 22 24 24 25 25 23 21 19 18 17 18 18 19 20 20 20 19 18 18 18 17 17 17 17 17 17 17 16
16 16 18 18 19 20 20 20 20 20 20 21 20 20 18 16 15 15 16 15 13 11 10 10 11 10 8 8 9 8 7 6 7 10 12 14 16 19 21 21 21 20 18 18 17 16 16 18 20 19 17 16 17 18 18 17 16 16 17 17 18 18 18
16 16 17 17 17 18 18 18 17 17 18 18 18 16 14 13 13 13 14 13 11 12 13 14 14 13 11 12 12 10 7 7 6 5 5 6 8 11 13 16 17 17 16 16 16 16 15 16 16 15 15 15 17 18 18 17 17 17 18 18 19 18 19
16 16 16 16 16 16 15 15 15 14 14 14 14 13 11 10 10 11 12 10 9 10 12 13 12 12 11 11 12 11 10 9 8 6 5 5 5 6 7 10 13 14 13 13 14 15 16 15 13 12 13 14 14 15 16 16 17 17 18 19 20 19 19
15 16 16 16 15 15 14 13 12 11 11 11 11 9 9 9 9 10 10 8 7 9 11 10 10 9 8 8 8 8 8 9 10 9 9 8 8 7 7 7 8 9 9 10 12 13 12 10 9 9 9 11 13 14 14 15 16 17 18 19 19 20 20
16 16 16 15 14 13 12 11 9 8 9 9 8 7 8 8 8 9 9 7 7 9 9 8 8 7 6 6 5 5 6 6 7 7 8 9 9 8 9 9 7 6 7 7 8 10 9 6 6 8 9 10 13 13 13 14 15 16 17 17 17 18 18
16 15 14 14 13 11 9 8 8 7 7 7 6 6 7 7 8 9 8 7 8 9 7 7 6 6 5 5 5 5 5 4 4 4 5 6 6 5 6 7 7 7 8 6 5 6 7 5 3 6 8 10 12 13 13 13 13 13 14 14 14 14 15
17 16 15 13 12 10 7 5 5 5 5 5 5 5 6 6 7 8 7 7 8 8 6 6 6 5 4 4 4 4 4 4 4 4 3 3 3 3 3 3 3 4 4 5 5 6 7 7 6 4 6 7 9 9 10 10 10 11 12 11 11 12 13
18 17 15 13 11 9 6 4 4 4 4 4 4 4 5 6 7 7 7 6 6 6 5 5 5 5 4 4 3 3 3 4 4 3 3 2 2 2 1 1 1 2 2 4 5 5 6 8 10 9 7 7 6 6 6 7 9 9 8 8 10 11 12
19 17 15 14 12 9 7 4 4 4 4 4 4 4 5 5 6 6 6 5 5 5 4 4 4 4 4 4 3 2 1 1 1 2 2 2 2 3 2 3 3 4 4 5 6 7 8 8 9 10 10 9 7 6 6 6 7 7 6 7 10 11 11
20 18 16 14 11 9 6 4 3 3 3 4 4 5 6 5 5 5 5 5 5 5 5 5 5 5 4 4 4 4 3 2 1 1 1 2 2 3 4 4 5 5 5 6 7 8 9 8 8 9 9 9 8 7 7 7 7 7 8 9 10 11 11
21 19 17 14 10 7 5 2 1 2 4 4 5 6 6 6 7 6 6 6 6 6 6 6 6 6 5 5 5 5 5 5 4 3 2 2 3 3 4 5 6 6 7 7 8 9 10 10 10 11 11 11 10 10 10 10 11 11 12 13 13 14 14
22 20 17 13 10 7 4 2 1 3 5 5 6 6 6 7 7 8 8 8 8 8 8 7 6 6 5 4 4 4 4 4 4 4 3 3 4 4 5 5 6 7 8 9 10 10 11 11 12 12 13 13 14 14 14 15 17 17 17 17 17 18 18
22 19 16 14 11 8 6 5 3 3 4 6 6 6 6 6 7 7 8 8 8 8 8 8 7 6 5 3 3 2 2 2 2 3 3 3 4 4 5 6 6 7 8 9 10 11 12 12 13 13 13 14 15 16 17 18 19 19 20 20 20 21 21
23 19 16 14 12 9 7 5 3 4 5 5 5 5 5 5 6 6 6 6 6 7 7 7 7 6 5 4 3 2 2 2 2 2 2 3 3 4 5 6 6 7 8 8 9 10 11 11 12 13 13 14 15 15 16 18 19 19 20 20 20 20 20
21 17 15 13 11 8 6 4 4 5 5 4 4 4 3 3 4 4 4 4 4 5 5 6 6 6 6 6 5 4 3 3 3 3 3 2 3 3 4 5 6 7 7 8 9 9 9 10 10 11 12 12 13 14 15 16 16 17 17 17 18 18 18
Wind_Direction
201 203 208 212 212 213 215 219 222 224 226 227 225 222 219 219 220 221 221 220 218 218 216 213 212 213 215 214 214 213 212 215 216 215 215 214 213 210 210 221 233 240 245 252 256 246 234 227 223 219 213 211 213 215 219 219 219 221 219 218 220 220 219
190 195 200 205 207 209 213 217 221 222 224 225 225 224 221 220 220 220 222 221 219 220 220 218 216 215 216 215 215 215 213 214 217 217 217 218 220 216 208 213 223 231 237 242 247 240 231 227 224 220 214 209 209 212 217 219 221 226 225 223 225 220 215
187 189 191 193 199 205 209 215 218 219 221 223 223 224 222 221 220 219 221 220 219 221 222 222 221 219 219 218 218 219 218 216 217 220 220 220 222 221 217 214 215 221 228 229 227 223 222 222 222 220 214 209 207 210 215 219 223 229 229 227 228 224 220
186 187 188 187 196 204 205 211 218 218 220 222 224 225 224 223 223 223 223 222 220 220 222 224 224 224 224 222 221 223 223 221 220 221 223 222 222 222 222 220 217 216 218 219 217 213 213 218 220 222 219 214 210 210 215 218 221 226 228 227 227 228 227
178 186 191 188 189 197 201 207 214 216 218 221 224 226 227 228 228 227 227 226 224 224 224 226 227 228 228 228 227 228 228 228 225 223 225 224 222 222 223 222 219 216 213 211 213 214 215 219 223 226 225 222 218 216 217 218 221 226 227 225 225 229 232
172 183 191 189 188 192 194 198 206 210 214 219 224 227 230 231 232 232 232 230 228 228 228 229 230 232 233 232 232 232 232 233 230 227 227 226 224 224 224 222 220 218 218 215 214 217 219 223 228 231 231 229 228 225 223 223 224 229 229 226 225 227 231
168 178 187 192 197 199 196 196 201 205 208 214 219 224 228 232 234 235 236 235 233 231 231 230 231 234 235 235 235 235 232 232 232 230 229 228 227 228 227 223 220 220 223 223 220 218 220 225 232 235 235 232 231 230 228 226 226 230 232 229 226 226 226
167 176 185 193 202 206 204 203 204 207 213 216 218 220 224 228 232 234 237 237 237 236 234 233 234 235 237 237 238 238 234 232 231 230 230 230 231 231 230 227 224 223 226 227 225 223 223 225 230 236 237 234 233 233 232 231 229 230 232 233 230 225 224
159 169 180 191 201 206 210 212 213 215 217 219 220 221 224 226 230 232 234 236 237 238 237 235 236 236 238 239 239 239 237 234 231 229 228 230 233 234 234 233 230 228 228 228 228 228 226 226 228 233 236 235 233 232 232 232 231 231 233 234 232 227 226
141 152 165 182 195 204 211 216 220 221 220 218 220 223 224 227 229 230 232 236 237 238 237 236 237 237 237 238 238 238 236 234 231 229 228 228 231 234 235 236 235 234 231 229 228 229 229 228 228 230 232 234 233 231 230 229 229 232 234 234 234 232 231
146 154 160 172 184 195 204 212 219 224 225 224 226 228 229 229 227 226 229 234 237 238 237 235 236 236 236 237 237 235 233 232 230 230 230 229 230 232 234 236 238 237 234 231 228 229 231 229 228 230 232 232 231 231 230 229 230 232 234 236 239 240 240
151 156 161 172 182 191 198 205 213 220 225 228 231 232 233 232 230 229 230 233 236 239 240 238 237 236 235 236 238 238 237 235 233 232 232 233 233 233 233 235 237 238 237 234 230 229 230 230 228 230 232 232 232 232 231 231 233 232 232 236 240 243 247
139 144 154 167 181 194 201 208 215 219 221 223 226 229 231 232 234 235 237 238 240 242 243 242 242 240 237 234 236 240 242 242 241 239 236 235 235 234 233 233 236 237 236 235 234 232 233 233 230 229 231 231 231 231 231 231 232 233 233 233 236 240 246
126 127 133 144 158 177 194 208 219 225 226 225 224 224 226 229 232 236 239 240 241 241 241 242 243 244 243 238 235 238 242 245 245 243 239 236 234 233 232 231 232 234 234 234 234 235 236 236 235 232 231 230 229 229 229 229 229 230 229 229 231 235 239
126 124 117 116 124 133 148 180 214 228 233 232 230 228 229 231 231 234 238 238 238 238 237 236 238 240 242 241 238 238 241 244 244 242 240 236 235 235 232 229 229 230 230 230 231 234 235 236 238 236 232 228 226 225 225 226 226 225 224 225 227 231 235
131 128 118 108 105 102 100 93 83 290 255 233 227 224 224 227 228 233 237 237 235 234 232 231 234 235 235 237 237 237 238 240 240 240 241 237 235 235 233 231 230 229 227 226 226 228 231 232 234 235 232 226 224 224 224 226 226 224 222 223 224 227 230
137 134 124 114 105 100 100 97 96 100 105 125 186 203 204 209 214 221 229 232 230 227 227 227 228 229 230 233 237 238 237 237 236 236 239 240 238 233 229 228 229 230 230 228 226 226 226 228 228 227 226 222 223 226 227 229 231 228 226 224 223 227 233
137 135 128 118 108 107 110 100 92 92 98 110 128 153 185 205 205 204 215 226 228 227 229 230 226 224 226 230 234 236 235 236 235 234 235 240 242 237 230 226 225 227 228 229 230 229 227 227 226 224 222 221 224 228 230 232 233 231 230 228 224 226 232
133 131 129 124 116 118 119 107 94 89 90 97 104 112 132 166 176 173 188 214 224 226 229 230 227 225 228 230 231 231 231 232 233 232 232 236 240 238 231 227 225 225 225 227 229 230 228 228 227 224 221 222 226 230 233 237 235 231 231 231 228 229 232
129 129 130 125 120 117 112 105 101 94 89 89 92 97 105 113 113 113 124 153 186 205 215 220 221 222 225 229 230 230 230 231 233 233 235 237 237 235 231 228 227 227 227 227 228 228 230 232 232 231 228 228 232 237 242 245 242 237 235 233 232 233 234
129 128 126 121 118 115 108 104 101 95 90 87 84 87 91 89 88 94 99 103 113 149 182 199 207 210 214 220 225 226 226 230 233 234 236 238 236 233 232 230 228 229 230 229 227 227 230 232 232 233 233 234 236 242 249 253 253 250 247 241 238 238 238
132 129 125 122 120 115 109 105 101 96 92 88 83 80 81 82 86 93 99 100 104 118 134 152 167 164 161 179 195 202 207 215 222 225 230 236 238 237 235 232 230 230 231 229 226 225 226 226 225 226 229 231 233 236 243 250 255 257 257 254 251 248 247
133 128 125 124 120 114 108 103 100 97 94 89 84 79 76 77 81 86 91 92 93 97 98 102 106 101 101 116 128 138 155 179 194 202 210 221 229 233 233 230 227 224 223 223 224 224 223 223 223 224 227 232 236 238 241 245 251 256 259 260 259 258 256
132 127 126 126 121 115 110 105 102 99 95 91 87 81 76 73 72 75 81 84 86 90 90 88 89 92 93 89 87 91 101 117 146 169 183 196 206 212 215 216 216 217 218 218 219 221 222 226 230 230 229 232 236 239 239 240 244 251 255 257 258 259 259
138 134 132 132 128 121 115 111 106 102 99 94 88 81 73 68 66 68 72 78 84 87 85 82 79 78 77 75 74 77 85 93 105 125 147 165 178 188 194 197 200 206 212 212 211 211 209 209 217 220 216 218 226 231 231 233 238 245 250 252 254 256 256
144 139 134 134 132 127 120 116 112 105 99 93 87 80 68 61 63 68 71 75 79 80 78 76 72 68 67 69 71 70 70 76 88 100 110 119 131 146 166 184 192 195 196 196 199 205 207 205 206 211 209 210 219 225 227 230 234 237 241 245 247 248 250
148 141 136 133 130 127 124 121 114 103 95 87 81 74 60 49 52 62 69 76 78 75 73 69 66 63 60 62 69 67 63 66 74 83 90 92 96 107 123 157 187 194 191 192 198 205 212 216 220 224 222 220 224 227 228 230 231 232 237 241 242 245 249
155 147 142 137 132 131 128 125 115 101 93 86 74 63 50 42 46 55 61 70 77 77 75 70 67 65 60 62 68 70 69 68 67 74 82 83 85 92 98 104 118 143 160 180 202 206 208 216 227 229 228 227 230 233 232 230 231 234 239 242 243 248 253
164 157 151 145 143 143 137 127 118 104 97 92 75 58 46 35 40 49 52 59 70 72 71 69 67 63 62 67 75 79 84 87 76 68 68 69 70 75 87 97 106 117 122 120 130 157 160 159 196 228 231 227 227 229 228 226 228 234 241 245 247 251 254
170 166 162 158 155 154 147 131 119 108 100 90 67 52 40 25 29 39 44 54 63 61 57 58 56 51 53 65 77 87 96 102 100 94 82 68 63 60 64 82 100 113 119 119 118 124 128 132 149 192 230 235 232 232 232 235 241 247 255 261 262 261 259
175 172 170 170 167 162 157 137 110 97 87 74 49 32 22 15 16 22 31 45 53 50 45 43 38 33 33 42 61 82 96 104 110 114 114 118 125 122 90 74 101 132 157 165 161 161 167 170 174 187 212 233 241 240 236 239 246 252 263 274 270 261 259
179 179 178 177 176 172 166 145 111 90 63 44 27 12 6 5 6 11 20 29 29 26 25 22 15 10 3 5 13 26 54 93 119 134 140 152 166 172 170 161 156 164 173 176 177 182 190 192 190 196 210 225 234 237 233 233 237 238 243 256 259 255 255
184 185 186 186 183 176 167 145 119 89 43 17 4 356 352 353 355 359 4 5 358 352 349 343 340 338 333 330 328 327 326 320 299 250 211 206 203 204 203 196 192 189 184 182 186 189 193 199 203 208 217 223 227 234 242 248 250 247 243 249 258 262 264
190 189 192 192 188 181 171 154 106 37 11 357 346 342 337 337 341 343 343 342 337 334 332 327 324 325 324 318 313 309 307 306 301 290 279 264 243 235 232 224 221 220 215 209 206 203 204 207 210 215 222 226 230 239 250 255 257 256 253 253 257 263 266
194 194 194 194 190 187 191 209 281 334 337 334 333 330 325 326 330 332 334 335 332 330 329 326 324 325 326 329 327 318 308 303 299 292 286 275 263 254 246 239 236 236 234 232 229 225 225 225 225 226 229 232 237 243 249 255 259 261 263 264 266 269 272
197 197 198 197 194 195 204 219 252 301 316 320 319 312 311 317 322 325 327 329 330 330 328 327 328 330 329 333 337 334 331 315 295 289 285 277 271 265 257 251 246 241 241 244 243 240 240 239 240 241 242 243 245 246 248 254 259 263 268 272 275 277 279
202 202 204 203 202 205 211 220 256 293 300 302 296 291 301 311 316 322 324 324 327 330 329 330 331 330 329 329 324 323 337 337 317 300 283 268 262 262 262 263 260 255 252 252 253 253 252 251 250 250 250 252 255 257 259 262 265 268 272 276 278 281 283
205 208 211 211 211 216 225 248 282 290 285 279 270 273 294 312 324 336 341 341 342 339 336 335 332 328 329 332 331 332 336 336 333 331 321 303 281 260 252 254 259 264 262 259 259 260 260 261 263 263 262 262 262 263 265 268 271 275 278 281 284 287 289
Height
1540 1543 1546 1548 1551 1554 1556 1558 1561 1562 1564 1566 1568 1571 1573 1575 1577 1579 1581 1583 1585 1587 1589 1591 1592 1594 1595 1597 1599 1600 1602 1603 1604 1606 1607 1608 1609 1610 1611 1611 1612 1613 1614 1615 1615 1616 1616 1617 1617 1618 1619 1619 1620 1621 1621 1622 1623 1624 1624 1625 1625 1626 1627
1538 1541 1543 1546 1549 1551 1554 1557 1559 1561 1563 1565 1567 1569 1572 1574 1576 1578 1580 1582 1584 1586 1587 1589 1591 1592 1594 1596 1597 1599 1601 1602 1603 1605 1606 1607 1608 1609 1610 1611 1611 1612 1613 1614 1615 1615 1616 1616 1617 1617 1618 1619 1620 1620 1621 1622 1623 1623 1624 1624 1625 1625 1626
1536 1539 1541 1544 1546 1550 1553 1556 1558 1560 1562 1564 1565 1568 1570 1572 1574 1577 1579 1581 1583 1585 1586 1588 1590 1591 1593 1595 1596 1598 1599 1601 1602 1603 1605 1606 1607 1608 1609 1610 1611 1611 1612 1613 1614 1614 1615 1615 1616 1617 1617 1618 1619 1620 1621 1621 1622 1623 1623 1624 1625 1625 1625
1535 1537 1540 1544 1545 1549 1553 1555 1557 1559 1560 1563 1564 1566 1569 1571 1573 1575 1577 1579 1582 1583 1585 1587 1589 1590 1592 1593 1595 1596 1598 1599 1601 1602 1604 1605 1606 1607 1608 1609 1610 1610 1611 1612 1613 1613 1614 1615 1615 1616 1617 1618 1618 1619 1620 1621 1621 1622 1622 1623 1624 1624 1625
1534 1535 1539 1542 1545 1549 1551 1554 1557 1558 1560 1562 1563 1566 1568 1570 1572 1574 1576 1578 1580 1582 1584 1586 1588 1589 1591 1592 1594 1595 1596 1598 1599 1601 1602 1604 1605 1606 1607 1608 1609 1609 1610 1611 1612 1612 1613 1614 1615 1615 1616 1617 1618 1618 1619 1620 1620 1621 1621 1622 1623 1623 1624
1532 1534 1538 1541 1544 1547 1549 1553 1556 1556 1559 1561 1562 1565 1567 1569 1571 1572 1575 1577 1579 1581 1583 1585 1587 1588 1589 1591 1592 1593 1595 1596 1598 1599 1601 1602 1603 1604 1605 1607 1607 1608 1609 1610 1611 1612 1612 1613 1614 1614 1615 1616 1617 1617 1618 1619 1619 1620 1621 1621 1622 1623 1623
1532 1535 1538 1541 1543 1545 1548 1551 1554 1555 1558 1560 1561 1564 1565 1567 1569 1571 1573 1575 1577 1580 1581 1584 1585 1586 1588 1589 1590 1592 1593 1595 1596 1598 1599 1600 1602 1603 1604 1605 1606 1607 1608 1609 1610 1610 1611 1612 1613 1613 1614 1615 1616 1616 1617 1618 1618 1619 1620 1620 1621 1622 1622
1533 1535 1537 1540 1542 1544 1546 1549 1552 1554 1556 1558 1560 1562 1564 1566 1567 1569 1571 1573 1575 1577 1579 1581 1583 1584 1586 1587 1589 1591 1592 1594 1595 1596 1598 1599 1600 1601 1602 1603 1604 1605 1606 1607 1608 1609 1610 1611 1611 1612 1613 1614 1615 1615 1616 1617 1618 1618 1619 1620 1620 1621 1621
1534 1536 1538 1540 1542 1543 1546 1548 1550 1552 1554 1557 1559 1560 1562 1564 1565 1567 1568 1570 1572 1574 1577 1579 1581 1582 1584 1586 1588 1589 1591 1592 1593 1594 1596 1597 1598 1600 1601 1602 1603 1604 1605 1606 1607 1608 1609 1610 1610 1611 1612 1613 1614 1614 1615 1616 1617 1617 1618 1619 1619 1620 1620
1535 1536 1538 1540 1541 1543 1545 1547 1549 1551 1553 1555 1556 1558 1560 1562 1564 1565 1567 1569 1570 1572 1574 1576 1578 1580 1582 1584 1586 1588 1589 1590 1591 1593 1594 1595 1596 1597 1599 1600 1601 1602 1603 1604 1605 1606 1607 1608 1609 1610 1611 1612 1613 1613 1614 1615 1616 1616 1617 1618 1618 1619 1619
1534 1536 1538 1539 1541 1543 1545 1547 1549 1550 1552 1554 1555 1556 1558 1560 1562 1563 1565 1567 1568 1569 1571 1572 1575 1577 1579 1582 1584 1585 1587 1588 1589 1591 1592 1593 1594 1595 1597 1598 1599 1600 1601 1602 1603 1604 1606 1607 1608 1609 1610 1611 1612 1612 1613 1614 1615 1615 1616 1617 1617 1618 1618
1535 1536 1538 1540 1541 1543 1545 1546 1548 1549 1551 1552 1553 1555 1556 1558 1559 1561 1563 1565 1566 1567 1568 1570 1572 1575 1577 1579 1581 1583 1585 1586 1587 1588 1590 1591 1592 1593 1594 1596 1597 1598 1599 1600 1601 1603 1604 1605 1606 1607 1608 1609 1610 1611 1612 1613 1614 1614 1615 1616 1616 1617 1617
1535 1537 1539 1540 1541 1543 1544 1545 1546 1548 1549 1550 1551 1552 1554 1555 1557 1558 1560 1562 1563 1565 1567 1569 1571 1573 1575 1577 1579 1581 1582 1584 1585 1586 1588 1589 1590 1591 1592 1593 1594 1596 1597 1599 1600 1601 1602 1603 1605 1606 1607 1608 1609 1610 1611 1611 1612 1613 1614 1614 1615 1616 1616
1537 1538 1539 1540 1542 1542 1543 1544 1545 1545 1547 1548 1549 1550 1551 1552 1554 1556 1557 1559 1561 1563 1566 1568 1570 1572 1574 1575 1577 1578 1580 1581 1583 1584 1586 1587 1588 1589 1590 1591 1592 1593 1595 1596 1598 1599 1600 1601 1603 1604 1605 1606 1607 1608 1609 1610 1611 1611 1612 1613 1614 1614 1615
1538 1539 1540 1541 1541 1542 1542 1543 1544 1544 1545 1545 1547 1548 1549 1551 1552 1554 1555 1557 1559 1561 1563 1565 1567 1570 1572 1574 1576 1577 1577 1579 1581 1582 1584 1585 1586 1587 1588 1589 1590 1591 1592 1594 1595 1597 1598 1599 1600 1601 1603 1604 1605 1606 1607 1608 1609 1609 1610 1611 1612 1613 1614
1539 1540 1541 1542 1542 1542 1543 1543 1544 1544 1544 1544 1545 1546 1548 1549 1551 1552 1554 1555 1557 1559 1561 1563 1565 1567 1569 1571 1573 1574 1575 1576 1578 1579 1581 1583 1584 1585 1586 1587 1588 1589 1590 1591 1592 1593 1595 1596 1598 1599 1600 1602 1603 1604 1605 1606 1607 1608 1609 1610 1611 1611 1612
1541 1542 1542 1543 1543 1544 1544 1545 1545 1544 1544 1544 1545 1546 1547 1548 1549 1550 1551 1552 1554 1556 1558 1560 1562 1564 1565 1567 1569 1571 1572 1573 1574 1576 1578 1580 1582 1582 1583 1584 1585 1586 1587 1588 1589 1590 1592 1593 1595 1596 1598 1599 1601 1602 1603 1604 1605 1606 1607 1608 1609 1610 1610
1542 1543 1543 1544 1544 1544 1545 1546 1546 1545 1545 1545 1545 1545 1546 1547 1547 1548 1549 1550 1552 1554 1556 1558 1560 1561 1562 1563 1566 1568 1569 1570 1571 1573 1575 1578 1579 1579 1580 1581 1582 1584 1585 1586 1587 1588 1590 1591 1592 1594 1595 1597 1599 1600 1602 1603 1604 1604 1605 1606 1607 1608 1608
1542 1543 1544 1545 1545 1545 1546 1546 1546 1546 1546 1546 1545 1546 1546 1547 1547 1549 1550 1551 1552 1553 1555 1557 1558 1558 1559 1560 1562 1564 1566 1567 1568 1570 1572 1574 1575 1577 1578 1579 1580 1581 1582 1584 1585 1587 1588 1589 1591 1592 1594 1595 1597 1599 1600 1601 1602 1603 1603 1604 1605 1605 1606
1543 1545 1546 1546 1546 1546 1546 1547 1547 1547 1547 1547 1547 1547 1548 1548 1549 1550 1551 1551 1552 1553 1554 1555 1555 1556 1556 1558 1559 1561 1563 1564 1566 1567 1568 1570 1571 1574 1575 1576 1577 1579 1581 1582 1583 1585 1586 1588 1589 1591 1592 1594 1595 1597 1598 1599 1600 1601 1601 1602 1603 1603 1604
1545 1546 1546 1547 1547 1547 1548 1548 1548 1548 1548 1548 1548 1548 1549 1549 1550 1551 1552 1552 1552 1553 1553 1554 1554 1554 1555 1556 1557 1558 1560 1561 1563 1565 1566 1567 1568 1570 1572 1574 1575 1577 1578 1580 1581 1582 1584 1586 1587 1588 1590 1591 1592 1594 1595 1596 1597 1598 1599 1600 1601 1601 1602
1545 1546 1547 1548 1548 1549 1549 1549 1550 1549 1549 1549 1549 1549 1550 1550 1551 1552 1553 1553 1554 1553 1553 1554 1554 1554 1554 1555 1556 1557 1557 1558 1559 1561 1562 1563 1565 1567 1570 1572 1573 1575 1576 1577 1578 1580 1581 1582 1583 1585 1586 1587 1589 1590 1591 1592 1594 1595 1597 1598 1599 1600 1600
1546 1547 1548 1549 1550 1550 1550 1551 1551 1551 1551 1551 1551 1551 1551 1552 1553 1553 1554 1554 1554 1554 1554 1555 1555 1555 1556 1556 1556 1557 1557 1557 1558 1559 1560 1561 1563 1565 1568 1569 1571 1572 1573 1575 1576 1577 1578 1579 1580 1581 1583 1585 1586 1587 1588 1589 1591 1592 1594 1596 1597 1598 1598
1547 1548 1549 1550 1551 1551 1552 1552 1552 1553 1553 1552 1552 1553 1554 1555 1555 1555 1555 1555 1556 1556 1556 1556 1556 1557 1557 1557 1557 1558 1558 1558 1558 1559 1561 1562 1563 1564 1566 1567 1569 1570 1571 1572 1573 1575 1576 1577 1578 1580 1582 1583 1583 1584 1586 1586 1587 1589 1590 1592 1594 1595 1596
1548 1549 1550 1551 1552 1553 1553 1554 1554 1554 1554 1554 1554 1555 1556 1557 1557 1557 1557 1557 1558 1558 1557 1558 1558 1558 1558 1559 1559 1559 1559 1559 1559 1560 1561 1562 1563 1564 1564 1565 1567 1568 1569 1570 1571 1572 1574 1575 1576 1577 1579 1580 1581 1582 1583 1584 1585 1586 1587 1589 1590 1592 1593
1549 1550 1551 1552 1553 1553 1554 1555 1555 1555 1556 1556 1556 1557 1558 1558 1559 1559 1558 1559 1559 1559 1559 1559 1560 1560 1560 1560 1560 1560 1561 1560 1560 1561 1561 1562 1563 1564 1564 1565 1565 1566 1567 1568 1569 1571 1571 1572 1573 1575 1577 1579 1581 1582 1582 1582 1583 1584 1584 1585 1587 1588 1590
1550 1551 1552 1553 1554 1554 1555 1556 1556 1556 1557 1557 1557 1558 1559 1559 1560 1560 1560 1560 1560 1560 1560 1561 1561 1561 1562 1562 1562 1562 1562 1561 1561 1562 1562 1563 1564 1564 1565 1565 1565 1566 1566 1567 1568 1569 1570 1570 1572 1575 1576 1578 1580 1581 1580 1580 1581 1581 1582 1582 1584 1585 1587
1551 1552 1553 1554 1554 1555 1556 1556 1557 1557 1557 1558 1559 1559 1560 1560 1560 1560 1561 1561 1561 1561 1561 1562 1562 1563 1563 1563 1563 1563 1563 1563 1563 1563 1564 1564 1565 1565 1565 1565 1566 1566 1567 1567 1567 1568 1569 1570 1572 1574 1575 1577 1578 1579 1579 1578 1579 1579 1580 1581 1582 1583 1585
1551 1552 1553 1554 1555 1556 1556 1557 1558 1558 1558 1559 1559 1560 1560 1560 1561 1561 1561 1561 1561 1562 1562 1562 1563 1563 1563 1563 1564 1564 1564 1564 1564 1564 1565 1565 1565 1566 1566 1566 1567 1567 1568 1567 1567 1567 1568 1569 1570 1572 1573 1575 1576 1577 1576 1577 1577 1578 1578 1579 1580 1582 1583
1551 1553 1554 1555 1555 1556 1557 1557 1558 1558 1559 1560 1560 1561 1561 1561 1561 1561 1562 1562 1562 1562 1563 1563 1563 1563 1563 1564 1564 1564 1565 1565 1565 1566 1566 1566 1566 1566 1566 1567 1567 1568 1568 1568 1568 1567 1567 1568 1571 1572 1573 1574 1574 1574 1574 1575 1575 1576 1577 1578 1579 1580 1582
1551 1553 1554 1555 1556 1556 1557 1557 1558 1559 1560 1560 1561 1562 1562 1561 1561 1561 1562 1562 1562 1563 1563 1563 1564 1564 1564 1564 1564 1564 1565 1565 1566 1566 1566 1567 1567 1567 1567 1567 1568 1568 1569 1569 1568 1568 1569 1570 1572 1573 1573 1573 1573 1573 1573 1574 1575 1575 1576 1577 1578 1580 1581
1551 1552 1554 1555 1556 1557 1558 1558 1558 1559 1559 1560 1561 1562 1562 1562 1562 1562 1562 1562 1562 1563 1563 1564 1564 1564 1564 1564 1564 1564 1565 1565 1566 1566 1567 1567 1567 1568 1568 1568 1568 1569 1569 1569 1569 1570 1570 1571 1572 1572 1573 1573 1572 1572 1573 1573 1574 1575 1576 1576 1578 1579 1580
1551 1552 1554 1555 1556 1557 1558 1558 1559 1559 1559 1560 1561 1561 1562 1562 1562 1562 1563 1563 1563 1563 1563 1563 1564 1564 1564 1564 1564 1565 1565 1565 1565 1566 1566 1567 1567 1568 1568 1568 1569 1569 1569 1569 1570 1570 1571 1571 1571 1572 1572 1572 1572 1572 1572 1573 1573 1574 1575 1576 1577 1578 1579
1551 1552 1553 1554 1555 1557 1557 1558 1559 1559 1559 1560 1560 1561 1561 1562 1562 1562 1562 1563 1563 1563 1563 1563 1563 1563 1564 1564 1564 1564 1564 1564 1565 1565 1565 1566 1566 1567 1567 1568 1568 1569 1569 1570 1570 1570 1571 1571 1571 1571 1571 1571 1571 1571 1572 1572 1573 1573 1575 1576 1576 1577 1577
1551 1552 1553 1554 1555 1556 1557 1558 1558 1558 1559 1559 1560 1560 1561 1561 1562 1562 1562 1562 1562 1562 1562 1563 1563 1563 1563 1564 1564 1564 1564 1564 1564 1564 1565 1565 1565 1566 1566 1567 1567 1568 1568 1569 1569 1569 1570 1570 1570 1570 1570 1570 1571 1571 1571 1571 1572 1572 1573 1574 1574 1575 1575
1550 1551 1552 1553 1555 1556 1557 1558 1558 1558 1559 1559 1559 1560 1561 1561 1562 1562 1561 1561 1561 1561 1561 1562 1562 1562 1563 1563 1564 1564 1564 1564 1564 1564 1564 1564 1565 1565 1565 1566 1566 1567 1567 1567 1568 1568 1568 1568 1569 1569 1569 1569 1569 1570 1570 1570 1570 1571 1571 1571 1571 1572 1572
1550 1550 1551 1553 1554 1555 1556 1557 1557 1558 1558 1559 1559 1560 1560 1561 1561 1561 1561 1561 1561 1561 1561 1561 1561 1562 1562 1563 1563 1563 1563 1564 1564 1564 1564 1564 1564 1565 1565 1565 1565 1566 1566 1566 1566 1566 1566 1566 1566 1567 1567 1567 1567 1568 1568 1568 1568 1568 1568 1569 1568 1568 1568
1549 1550 1551 1552 1554 1555 1556 1556 1557 1557 1558 1559 1559 1560 1560 1561 1561 1561 1561 1561 1561 1561 1561 1561 1561 1561 1561 1561 1562 1562 1562 1563 1563 1563 1563 1564 1564 1564 1564 1564 1564 1564 1564 1564 1564 1564 1564 1564 1564 1564 1564 1565 1565 1565 1565 1566 1566 1566 1566 1566 1565 1565 1565